Location: Glenmont
(42.6048°N, 73.7696°W)
Time: 08:22:20
(UTC+00:00)

CZ-4B R/B - Pass Details

Date: 08 September 2024
Orbit: 807 x 881 km, 99.0° (Epoch: 12 October)

Event Time Altitude Azimuth Distance (km) Brightness Sun altitude
Exits shadow 23:38:51 - 128° (SE) 3,209 5.7 -4.9°
Reaches altitude 10° 23:40:59 10° 119° (ESE) 2,479 5.0 -5.3°
Maximum altitude 23:45:27 26° 64° (ENE) 1,596 4.3 -6.1°
Drops below altitude 10° 23:49:52 10° 9° (N) 2,451 5.7 -6.9°
Sets 23:52:32 0° 358° (N) 3,377 6.6 -7.4°
